Location: Rounton
(54.4000°N, 1.3500°W)
Time: 13:07:47
(UTC+00:00)

Transit 2A Rocket - Pass Details

Date: 30 November 2021
Orbit: 584 x 918 km, 66.7° (Epoch: 17 January)

Event Time Altitude Azimuth Distance (km) Brightness Sun altitude
Rises 17:49:12 0° 316° (NW) 3,568 8.9 -16.8°
Reaches altitude 10° 17:51:59 10° 307° (NW) 2,616 8.3 -17.2°
Maximum altitude 17:57:20 33° 246° (WSW) 1,472 7.1 -18.0°
Drops below altitude 10° 18:02:29 10° 185° (S) 2,500 7.8 -18.7°
Sets 18:05:05 0° 176° (S) 3,388 8.4 -19.1°
